| time (UTC) | temp C | wind direction | speed KPH | gust KPH | rain 1hr cm | rain 24hr cm | rain mn cm | humidity % | barometer mb |
| 20260507164303 | 17 | 225 | 1.6 | 17.7 | 0.00 | 0.00 | 0.00 | 48 | 1009.4 |
| 20260507163754 | 17 | 113 | 1.6 | 22.5 | 0.00 | 0.00 | 0.00 | 49 | 1009.6 |
| 20260507163242 | 16 | 180 | 0.0 | 22.5 | 0.00 | 0.00 | 0.00 | 51 | 1009.6 |
| 20260507162732 | 16 | 225 | 1.6 | 14.5 | 0.00 | 0.00 | 0.00 | 51 | 1009.6 |
| 20260507162222 | 16 | 225 | 1.6 | 14.5 | 0.00 | 0.00 | 0.00 | 53 | 1009.7 |
| 20260507161713 | 16 | 225 | 0.0 | 17.7 | 0.00 | 0.00 | 0.00 | 52 | 1009.7 |
| 20260507161202 | 15 | 248 | 1.6 | 12.9 | 0.00 | 0.00 | 0.00 | 52 | 1009.8 |
| 20260507160655 | 15 | 225 | 4.8 | 12.9 | 0.00 | 0.00 | 0.00 | 53 | 1009.5 |
| 20260507160143 | 15 | 248 | 1.6 | 11.3 | 0.00 | 0.00 | 0.00 | 56 | 1009.6 |
| 20260507155632 | 15 | 158 | 1.6 | 17.7 | 0.00 | 0.00 | 0.00 | 58 | 1009.9 |
| 20260507155122 | 15 | 135 | 3.2 | 17.7 | 0.00 | 0.00 | 0.00 | 58 | 1009.8 |
| 20260507154612 | 14 | 158 | 0.0 | 12.9 | 0.00 | 0.00 | 0.00 | 60 | 1010.1 |
| 20260507154101 | 14 | 180 | 0.0 | 17.7 | 0.00 | 0.00 | 0.00 | 60 | 1010.8 |
| 20260507153552 | 14 | 203 | 1.6 | 17.7 | 0.00 | 0.00 | 0.00 | 60 | 1010.6 |
| 20260507153049 | 13 | 113 | 1.6 | 9.7 | 0.00 | 0.00 | 0.00 | 61 | 1010.8 |
| 20260507151512 | 13 | 203 | 0.0 | 11.3 | 0.00 | 0.00 | 0.00 | 64 | 1011.1 |
| 20260507150450 | 13 | 270 | 0.0 | 3.2 | 0.00 | 0.00 | 0.00 | 65 | 1011.1 |
| 20260507145940 | 13 | 203 | 0.0 | 11.3 | 0.00 | 0.00 | 0.00 | 65 | 1010.4 |
| 20260507144924 | 13 | 248 | 0.0 | 6.4 | 0.00 | 0.00 | 0.00 | 66 | 1010.6 |
| 20260507144410 | 13 | 225 | 0.0 | 9.7 | 0.00 | 0.00 | 0.00 | 65 | 1010.6 |
| 20260507143859 | 13 | 203 | 0.0 | 9.7 | 0.00 | 0.00 | 0.00 | 68 | 1010.6 |
| 20260507142842 | 13 | 180 | 0.0 | 9.7 | 0.00 | 0.00 | 0.00 | 67 | 1010.7 |
| 20260507142336 | 13 | 203 | 0.0 | 6.4 | 0.00 | 0.00 | 0.00 | 68 | 1010.5 |
| 20260507141820 | 13 | 225 | 0.0 | 9.7 | 0.00 | 0.00 | 0.00 | 66 | 1010.5 |
| 20260507141310 | 13 | 203 | 0.0 | 11.3 | 0.00 | 0.00 | 0.00 | 65 | 1010.5 |
| 20260507140759 | 13 | 135 | 0.0 | 11.3 | 0.00 | 0.00 | 0.00 | 66 | 1010.3 |
| 20260507140249 | 13 | 203 | 3.2 | 14.5 | 0.00 | 0.00 | 0.00 | 68 | 1010.5 |
| 20260507135740 | 12 | 225 | 3.2 | 14.5 | 0.00 | 0.00 | 0.00 | 69 | 1010.5 |
| 20260507135230 | 12 | 270 | 0.0 | 11.3 | 0.00 | 0.00 | 0.00 | 72 | 1010.6 |
| 20260507134720 | 12 | 203 | 3.2 | 9.7 | 0.00 | 0.00 | 0.00 | 74 | 1010.6 |
| 20260507134209 | 12 | 203 | 3.2 | 6.4 | 0.00 | 0.00 | 0.00 | 75 | 1010.4 |
| 20260507133150 | 11 | 225 | 0.0 | 0.0 | 0.00 | 0.00 | 0.00 | 84 | 1009.6 |
| 20260507132129 | 12 | 225 | 0.0 | 6.4 | 0.00 | 0.00 | 0.00 | 82 | 1009.4 |
| 20260507131619 | 12 | 248 | 0.0 | 6.4 | 0.00 | 0.00 | 0.00 | 80 | 1009.2 |
| 20260507131108 | 12 | 135 | 0.0 | 17.7 | 0.00 | 0.00 | 0.00 | 81 | 1009.2 |
| 20260507130558 | 11 | 180 | 0.0 | 17.7 | 0.00 | 0.00 | 0.00 | 81 | 1009.3 |
| 20260507130049 | 12 | 158 | 0.0 | 3.2 | 0.00 | 0.00 | 0.00 | 83 | 1008.9 |
| 20260507125538 | 12 | 225 | 0.0 | 6.4 | 0.00 | 0.00 | 0.00 | 79 | 1009.5 |
| 20260507125028 | 12 | 225 | 1.6 | 6.4 | 0.00 | 0.00 | 0.00 | 80 | 1009.7 |
| 20260507124517 | 12 | 248 | 0.0 | 6.4 | 0.00 | 0.00 | 0.00 | 80 | 1009.3 |
| 20260507124008 | 12 | 248 | 3.2 | 6.4 | 0.00 | 0.00 | 0.00 | 81 | 1009.3 |
| 20260507123458 | 12 | 180 | 3.2 | 6.4 | 0.00 | 0.00 | 0.00 | 82 | 1009.8 |
| 20260507122947 | 11 | 270 | 0.0 | 12.9 | 0.00 | 0.00 | 0.00 | 85 | 1010.1 |
| 20260507122439 | 12 | 225 | 4.8 | 12.9 | 0.00 | 0.00 | 0.00 | 82 | 1010.0 |
| 20260507121927 | 11 | 315 | 3.2 | 12.9 | 0.00 | 0.00 | 0.00 | 86 | 1010.1 |
| 20260507121417 | 11 | 248 | 3.2 | 9.7 | 0.00 | 0.00 | 0.00 | 89 | 1009.6 |
| 20260507120356 | 11 | 248 | 4.8 | 12.9 | 0.00 | 0.00 | 0.00 | 89 | 1008.5 |
| 20260507115847 | 11 | 90 | 3.2 | 12.9 | 0.00 | 0.00 | 0.00 | 90 | 1008.5 |
| 20260507115340 | 11 | 180 | 4.8 | 11.3 | 0.00 | 0.00 | 0.00 | 90 | 1008.6 |
| 20260507114827 | 11 | 270 | 3.2 | 12.9 | 0.00 | 0.00 | 0.00 | 90 | 1008.1 |
| 20260507114325 | 11 | 203 | 6.4 | 12.9 | 0.00 | 0.00 | 0.00 | 88 | 1007.8 |
| 20260507112748 | 12 | 158 | 6.4 | 17.7 | 0.00 | 0.00 | 0.00 | 84 | 1006.9 |
| 20260507112236 | 13 | 180 | 0.0 | 14.5 | 0.00 | 0.00 | 0.00 | 81 | 1006.5 |
| 20260507111735 | 13 | 248 | 3.2 | 14.5 | 0.00 | 0.00 | 0.00 | 76 | 1006.7 |
| 20260507111215 | 13 | 248 | 3.2 | 14.5 | 0.00 | 0.00 | 0.00 | 75 | 1006.7 |
| 20260507110156 | 13 | 135 | 1.6 | 11.3 | 0.00 | 0.00 | 0.00 | 78 | 1006.8 |
| 20260507105137 | 14 | 225 | 1.6 | 12.9 | 0.00 | 0.00 | 0.00 | 78 | 1007.5 |
| 20260507104625 | 14 | 135 | 0.0 | 14.5 | 0.00 | 0.00 | 0.00 | 77 | 1007.2 |
| 20260507104116 | 15 | 113 | 0.0 | 14.5 | 0.00 | 0.00 | 0.00 | 73 | 1007.1 |
| 20260507103606 | 15 | 180 | 3.2 | 14.5 | 0.00 | 0.00 | 0.00 | 73 | 1006.9 |
| 20260507103055 | 15 | 203 | 0.0 | 17.7 | 0.00 | 0.00 | 0.00 | 75 | 1006.1 |
| 20260507102547 | 15 | 203 | 0.0 | 17.7 | 0.00 | 0.00 | 0.00 | 72 | 1005.7 |
| 20260507102035 | 15 | 158 | 0.0 | 17.7 | 0.00 | 0.00 | 0.00 | 69 | 1005.7 |
| 20260507101524 | 16 | 158 | 0.0 | 14.5 | 0.00 | 0.00 | 0.00 | 65 | 1005.3 |
| 20260507101015 | 16 | 248 | 3.2 | 14.5 | 0.00 | 0.00 | 0.00 | 65 | 1005.1 |
| 20260507100505 | 16 | 180 | 0.0 | 22.5 | 0.00 | 0.00 | 0.00 | 66 | 1005.3 |
| 20260507095954 | 16 | 203 | 0.0 | 22.5 | 0.00 | 0.00 | 0.00 | 69 | 1005.2 |
| 20260507094934 | 16 | 180 | 1.6 | 20.9 | 0.00 | 0.00 | 0.00 | 67 | 1005.7 |
| 20260507094420 | 16 | 0 | 4.8 | 20.9 | 0.00 | 0.00 | 0.00 | 68 | 1005.7 |
| 20260507093913 | 16 | 158 | 1.6 | 11.3 | 0.00 | 0.00 | 0.00 | 70 | 1005.9 |
| 20260507093403 | 16 | 248 | 0.0 | 11.3 | 0.00 | 0.00 | 0.00 | 71 | 1005.9 |
| 20260507092853 | 16 | 158 | 0.0 | 22.5 | 0.00 | 0.00 | 0.00 | 72 | 1006.2 |
| 20260507091833 | 16 | 248 | 0.0 | 17.7 | 0.00 | 0.00 | 0.00 | 73 | 1005.6 |
| 20260507090813 | 17 | 113 | 0.0 | 17.7 | 0.00 | 0.00 | 0.00 | 74 | 1005.3 |
| 20260507090302 | 17 | 248 | 3.2 | 17.7 | 0.00 | 0.00 | 0.00 | 73 | 1005.1 |
| 20260507085753 | 17 | 315 | 6.4 | 14.5 | 0.00 | 0.00 | 0.00 | 74 | 1005.3 |
| 20260507085243 | 17 | 270 | 6.4 | 20.9 | 0.00 | 0.00 | 0.00 | 75 | 1005.3 |
| 20260507084223 | 18 | 203 | 4.8 | 24.1 | 0.00 | 0.00 | 0.00 | 75 | 1005.0 |
| 20260507083711 | 18 | 248 | 6.4 | 20.9 | 0.00 | 0.00 | 0.00 | 75 | 1004.8 |
| 20260507083203 | 18 | 248 | 4.8 | 14.5 | 0.00 | 0.00 | 0.00 | 77 | 1005.0 |
| 20260507082652 | 18 | 270 | 3.2 | 14.5 | 0.00 | 0.00 | 0.00 | 79 | 1004.9 |
| 20260507082141 | 18 | 113 | 6.4 | 20.9 | 0.00 | 0.00 | 0.00 | 80 | 1004.9 |
| 20260507081634 | 18 | 248 | 4.8 | 20.9 | 0.00 | 0.00 | 0.00 | 82 | 1005.1 |
| 20260507081122 | 18 | 203 | 6.4 | 20.9 | 0.00 | 0.00 | 0.00 | 85 | 1004.7 |
| 20260507080612 | 18 | 338 | 4.8 | 20.9 | 0.00 | 0.00 | 0.00 | 87 | 1004.7 |
| 20260507075551 | 18 | 68 | 6.4 | 17.7 | 0.00 | 0.00 | 0.00 | 88 | 1004.3 |
| 20260507075041 | 18 | 203 | 4.8 | 22.5 | 0.00 | 0.00 | 0.00 | 88 | 1004.6 |
| 20260507074022 | 18 | 113 | 6.4 | 24.1 | 0.00 | 0.00 | 0.00 | 89 | 1004.5 |
| 20260507073511 | 18 | 113 | 4.8 | 24.1 | 0.00 | 0.00 | 0.00 | 89 | 1004.2 |
| 20260507073001 | 18 | 248 | 6.4 | 14.5 | 0.00 | 0.00 | 0.00 | 90 | 1004.1 |
| 20260507072450 | 18 | 180 | 4.8 | 20.9 | 0.00 | 0.00 | 0.00 | 90 | 1004.2 |
| 20260507071940 | 18 | 180 | 6.4 | 20.9 | 0.00 | 0.00 | 0.00 | 90 | 1004.2 |
| 20260507071430 | 19 | 270 | 3.2 | 17.7 | 0.00 | 0.00 | 0.00 | 91 | 1004.1 |
| 20260507070920 | 19 | 203 | 6.4 | 24.1 | 0.00 | 0.00 | 0.00 | 91 | 1004.5 |
| 20260507070410 | 19 | 225 | 8.0 | 24.1 | 0.00 | 0.00 | 0.00 | 91 | 1004.0 |
| 20260507065349 | 19 | 113 | 4.8 | 20.9 | 0.00 | 0.00 | 0.00 | 91 | 1003.9 |
| 20260507064840 | 19 | 270 | 4.8 | 20.9 | 0.00 | 0.00 | 0.00 | 91 | 1003.6 |
| 20260507064330 | 18 | 203 | 6.4 | 14.5 | 0.00 | 0.00 | 0.00 | 91 | 1003.7 |
| 20260507063309 | 19 | 203 | 8.0 | 17.7 | 0.00 | 0.00 | 0.00 | 90 | 1003.5 |
| 20260507062800 | 19 | 180 | 6.4 | 20.9 | 0.00 | 0.00 | 0.00 | 90 | 1003.3 |
| 20260507062249 | 19 | 90 | 4.8 | 20.9 | 0.00 | 0.00 | 0.00 | 90 | 1003.2 |
| 20260507061739 | 19 | 270 | 6.4 | 17.7 | 0.00 | 0.00 | 0.00 | 89 | 1003.4 |
| 20260507060719 | 19 | 158 | 4.8 | 17.7 | 0.00 | 0.00 | 0.00 | 88 | 1003.5 |
| 20260507060210 | 19 | 225 | 4.8 | 17.7 | 0.00 | 0.00 | 0.00 | 88 | 1003.5 |
| 20260507055658 | 19 | 180 | 6.4 | 17.7 | 0.00 | 0.00 | 0.00 | 88 | 1003.4 |
| 20260507055149 | 19 | 158 | 3.2 | 22.5 | 0.00 | 0.00 | 0.00 | 89 | 1003.3 |
| 20260507054127 | 19 | 158 | 4.8 | 14.5 | 0.00 | 0.00 | 0.00 | 92 | 1003.1 |
| 20260507053618 | 19 | 113 | 3.2 | 9.7 | 0.00 | 0.00 | 0.00 | 93 | 1003.0 |
| 20260507053110 | 19 | 225 | 3.2 | 9.7 | 0.00 | 0.00 | 0.00 | 93 | 1003.3 |
| 20260507052557 | 19 | 23 | 3.2 | 14.5 | 0.00 | 0.00 | 0.00 | 93 | 1003.1 |
| 20260507052048 | 19 | 225 | 4.8 | 14.5 | 0.00 | 0.00 | 0.00 | 93 | 1003.0 |
| 20260507051539 | 19 | 180 | 4.8 | 14.5 | 0.00 | 0.00 | 0.00 | 92 | 1002.9 |
| 20260507051028 | 19 | 203 | 3.2 | 14.5 | 0.00 | 0.00 | 0.00 | 92 | 1003.0 |
| 20260507050517 | 20 | 180 | 1.6 | 14.5 | 0.00 | 0.00 | 0.00 | 91 | 1002.9 |
| 20260507045501 | 20 | 135 | 4.8 | 14.5 | 0.00 | 0.00 | 0.00 | 90 | 1002.7 |
| 20260507044947 | 20 | 158 | 4.8 | 14.5 | 0.00 | 0.00 | 0.00 | 90 | 1002.5 |
| 20260507044437 | 20 | 135 | 3.2 | 14.5 | 0.00 | 0.00 | 0.00 | 90 | 1002.7 |
| 20260507043927 | 21 | 203 | 1.6 | 14.5 | 0.00 | 0.00 | 0.00 | 90 | 1002.6 |
| 20260507043417 | 21 | 135 | 4.8 | 17.7 | 0.00 | 0.00 | 0.00 | 91 | 1002.8 |
| 20260507042907 | 21 | 225 | 4.8 | 17.7 | 0.00 | 0.00 | 0.00 | 92 | 1002.6 |
| 20260507041337 | 21 | 225 | 1.6 | 6.4 | 0.00 | 0.00 | 0.00 | 98 | 1002.7 |
| 20260507040827 | 21 | 180 | 3.2 | 9.7 | 0.00 | 0.00 | 0.00 | 98 | 1002.5 |
| 20260507040321 | 6 | 203 | 4.8 | 12.9 | 0.00 | 0.00 | 0.00 | 95 | 1002.5 |
| 20260507035806 | 20 | 203 | 3.2 | 12.9 | 0.00 | 0.00 | 0.00 | 98 | 1002.6 |
| 20260507035256 | 20 | 203 | 4.8 | 11.3 | 0.00 | 0.00 | 0.00 | 99 | 1002.6 |
| 20260507034746 | 19 | 180 | 3.2 | 11.3 | 0.00 | 0.00 | 0.00 | 98 | 1002.3 |
| 20260507034236 | 19 | 68 | 0.0 | 0.0 | 0.00 | 0.00 | 0.00 | 98 | 1002.0 |
| 20260507033217 | 20 | 23 | 0.0 | 0.0 | 0.00 | 0.00 | 0.00 | 98 | 1001.7 |
| 20260507032705 | 20 | 23 | 0.0 | 0.0 | 0.00 | 0.00 | 0.00 | 99 | 1001.5 |
| 20260507032155 | 20 | 23 | 0.0 | 0.0 | 0.00 | 0.00 | 0.00 | 98 | 1001.6 |
| 20260507031645 | 20 | 23 | 0.0 | 0.0 | 0.00 | 0.00 | 0.00 | 98 | 1001.5 |
| 20260507031135 | 20 | 23 | 0.0 | 0.0 | 0.00 | 0.00 | 0.00 | 98 | 1001.6 |
| 20260507030637 | 21 | 23 | 0.0 | 0.0 | 0.00 | 0.00 | 0.00 | 98 | 1001.6 |
| 20260507030114 | 20 | 23 | 0.0 | 0.0 | 0.00 | 0.00 | 0.00 | 98 | 1001.5 |
| 20260507025054 | 20 | 23 | 0.0 | 0.0 | 0.00 | 0.00 | 0.00 | 98 | 1001.7 |
| 20260507024545 | 20 | 23 | 0.0 | 0.0 | 0.00 | 0.00 | 0.00 | 98 | 1001.6 |
| 20260507024035 | 20 | 23 | 0.0 | 0.0 | 0.00 | 0.00 | 0.00 | 98 | 1001.7 |
| 20260507023524 | 20 | 23 | 0.0 | 0.0 | 0.00 | 0.00 | 0.00 | 97 | 1001.8 |
| 20260507022504 | 21 | 23 | 0.0 | 0.0 | 0.00 | 0.00 | 0.00 | 98 | 1001.9 |
| 20260507021954 | 20 | 23 | 0.0 | 0.0 | 0.00 | 0.00 | 0.00 | 98 | 1001.6 |
| 20260507021443 | 20 | 23 | 0.0 | 0.0 | 0.00 | 0.00 | 0.00 | 97 | 1002.0 |
| 20260507020933 | 20 | 23 | 0.0 | 0.0 | 0.00 | 0.00 | 0.00 | 97 | 1001.9 |
| 20260507020423 | 20 | 23 | 0.0 | 0.0 | 0.00 | 0.00 | 0.00 | 97 | 1002.1 |
| 20260507015913 | 20 | 23 | 0.0 | 3.2 | 0.00 | 0.00 | 0.00 | 97 | 1002.1 |
| 20260507015403 | 20 | 23 | 0.0 | 3.2 | 0.00 | 0.00 | 0.00 | 97 | 1002.3 |
| 20260507014853 | 21 | 23 | 0.0 | 0.0 | 0.00 | 0.00 | 0.00 | 97 | 1002.4 |
| 20260507014343 | 21 | 23 | 0.0 | 0.0 | 0.00 | 0.00 | 0.00 | 97 | 1002.3 |
| 20260507013833 | 21 | 23 | 0.0 | 0.0 | 0.00 | 0.00 | 0.00 | 97 | 1002.0 |
| 20260507013324 | 21 | 23 | 0.0 | 0.0 | 0.00 | 0.00 | 0.00 | 97 | 1002.2 |
| 20260507012812 | 21 | 23 | 0.0 | 0.0 | 0.00 | 0.00 | 0.00 | 97 | 1002.2 |
| 20260507011753 | 21 | 23 | 0.0 | 0.0 | 0.00 | 0.00 | 0.00 | 96 | 1002.1 |
| 20260507011242 | 21 | 23 | 0.0 | 0.0 | 0.00 | 0.00 | 0.00 | 96 | 1002.6 |
| 20260507010732 | 21 | 23 | 0.0 | 0.0 | 0.00 | 0.00 | 0.00 | 96 | 1002.5 |
| 20260507010222 | 21 | 23 | 0.0 | 0.0 | 0.00 | 0.00 | 0.00 | 96 | 1002.5 |
| 20260507005712 | 21 | 23 | 0.0 | 0.0 | 0.00 | 0.00 | 0.00 | 96 | 1002.5 |
| 20260507004652 | 21 | 23 | 0.0 | 0.0 | 0.00 | 0.00 | 0.00 | 95 | 1002.5 |
| 20260507004142 | 21 | 23 | 0.0 | 0.0 | 0.00 | 0.00 | 0.00 | 95 | 1002.4 |
| 20260507003632 | 21 | 23 | 0.0 | 0.0 | 0.00 | 0.00 | 0.00 | 95 | 1002.6 |
| 20260507003121 | 21 | 23 | 0.0 | 0.0 | 0.00 | 0.00 | 0.00 | 95 | 1002.6 |
| 20260507002615 | 21 | 23 | 0.0 | 0.0 | 0.00 | 0.00 | 0.00 | 95 | 1002.3 |
| 20260507002100 | 22 | 23 | 0.0 | 0.0 | 0.00 | 0.00 | 0.00 | 96 | 1002.1 |
| 20260507001551 | 22 | 23 | 0.0 | 0.0 | 0.00 | 0.00 | 0.00 | 96 | 1002.1 |
| 20260507001044 | 22 | 23 | 0.0 | 0.0 | 0.00 | 0.00 | 0.00 | 96 | 1001.7 |
| 20260507000530 | 22 | 23 | 0.0 | 0.0 | 0.00 | 0.00 | 0.00 | 95 | 1001.8 |
| 20260507000022 | 22 | 23 | 0.0 | 0.0 | 0.00 | 0.00 | 0.00 | 95 | 1001.9 |
| 20260506235510 | 22 | 23 | 0.0 | 0.0 | 0.00 | 0.00 | 0.00 | 95 | 1001.9 |
| 20260506235000 | 22 | 23 | 0.0 | 0.0 | 0.00 | 0.00 | 0.00 | 95 | 1001.6 |
| 20260506234451 | 22 | 23 | 0.0 | 0.0 | 0.00 | 0.00 | 0.00 | 95 | 1001.4 |
| 20260506233940 | 22 | 23 | 0.0 | 3.2 | 0.00 | 0.00 | 0.00 | 95 | 1001.4 |
| 20260506233430 | 22 | 23 | 0.0 | 3.2 | 0.00 | 0.00 | 0.00 | 94 | 1000.9 |
| 20260506232920 | 22 | 23 | 1.6 | 6.4 | 0.00 | 0.00 | 0.00 | 94 | 1000.6 |
| 20260506232410 | 22 | 23 | 3.2 | 6.4 | 0.00 | 0.00 | 0.00 | 94 | 1000.4 |
| 20260506231900 | 22 | 23 | 1.6 | 6.4 | 0.00 | 0.00 | 0.00 | 94 | 1000.4 |
| 20260506231349 | 22 | 23 | 0.0 | 6.4 | 0.00 | 0.00 | 0.00 | 93 | 1000.1 |
| 20260506230843 | 22 | 23 | 3.2 | 9.7 | 0.00 | 0.00 | 0.00 | 93 | 1000.3 |
| 20260506230342 | 23 | 23 | 3.2 | 9.7 | 0.00 | 0.00 | 0.00 | 92 | 1000.2 |
| 20260506225819 | 23 | 23 | 3.2 | 9.7 | 0.00 | 0.00 | 0.00 | 92 | 1000.3 |
| 20260506225312 | 23 | 0 | 1.6 | 9.7 | 0.00 | 0.00 | 0.00 | 92 | 1000.1 |
| 20260506224759 | 23 | 23 | 3.2 | 9.7 | 0.00 | 0.00 | 0.00 | 91 | 1000.2 |
| 20260506224248 | 23 | 23 | 3.2 | 14.5 | 0.00 | 0.00 | 0.00 | 91 | 1000.1 |
| 20260506223739 | 23 | 45 | 3.2 | 14.5 | 0.00 | 0.00 | 0.00 | 91 | 1000.1 |
| 20260506223229 | 23 | 23 | 1.6 | 12.9 | 0.00 | 0.00 | 0.00 | 90 | 999.8 |
| 20260506222719 | 23 | 0 | 3.2 | 14.5 | 0.00 | 0.00 | 0.00 | 90 | 999.7 |
| 20260506222208 | 24 | 0 | 8.0 | 14.5 | 0.00 | 0.00 | 0.00 | 90 | 999.9 |
| 20260506221701 | 24 | 338 | 6.4 | 12.9 | 0.00 | 0.00 | 0.00 | 89 | 1000.2 |
| 20260506221148 | 24 | 23 | 6.4 | 12.9 | 0.00 | 0.00 | 0.00 | 89 | 1000.0 |
| 20260506220638 | 24 | 0 | 6.4 | 12.9 | 0.00 | 0.00 | 0.00 | 89 | 999.8 |
| 20260506220129 | 24 | 45 | 3.2 | 14.5 | 0.00 | 0.00 | 0.00 | 88 | 999.9 |
| 20260506215107 | 24 | 45 | 3.2 | 12.9 | 0.00 | 0.00 | 0.00 | 88 | 1000.1 |
| 20260506214558 | 25 | 23 | 1.6 | 12.9 | 0.00 | 0.00 | 0.00 | 87 | 1000.2 |
| 20260506214048 | 25 | 45 | 1.6 | 11.3 | 0.00 | 0.00 | 0.00 | 86 | 1000.0 |
| 20260506213539 | 25 | 45 | 0.0 | 14.5 | 0.00 | 0.00 | 0.00 | 86 | 999.9 |
| 20260506213028 | 25 | 45 | 3.2 | 14.5 | 0.00 | 0.00 | 0.00 | 85 | 1000.0 |
| 20260506212008 | 25 | 23 | 6.4 | 17.7 | 0.00 | 0.00 | 0.00 | 83 | 999.7 |
| 20260506211457 | 26 | 0 | 6.4 | 17.7 | 0.00 | 0.00 | 0.00 | 82 | 999.7 |
| 20260506210437 | 27 | 45 | 0.0 | 14.5 | 0.00 | 0.00 | 0.00 | 75 | 999.8 |
| 20260506205926 | 27 | 68 | 1.6 | 14.5 | 0.00 | 0.00 | 0.00 | 73 | 999.9 |
| 20260506205417 | 27 | 23 | 0.0 | 14.5 | 0.00 | 0.00 | 0.00 | 72 | 999.9 |
| 20260506204907 | 28 | 90 | 4.8 | 14.5 | 0.00 | 0.00 | 0.00 | 71 | 1000.1 |
| 20260506204356 | 28 | 68 | 1.6 | 14.5 | 0.00 | 0.00 | 0.00 | 70 | 1000.1 |
| 20260506203846 | 28 | 45 | 3.2 | 17.7 | 0.00 | 0.00 | 0.00 | 69 | 1000.3 |
| 20260506202826 | 28 | 0 | 3.2 | 22.5 | 0.00 | 0.00 | 0.00 | 69 | 1000.2 |
| 20260506202316 | 10 | 23 | 0.0 | 22.5 | 0.00 | 0.00 | 0.00 | 77 | 1000.0 |
| 20260506201806 | 29 | 0 | 1.6 | 20.9 | 0.00 | 0.00 | 0.00 | 67 | 1000.3 |
| 20260506201256 | 28 | 23 | 6.4 | 22.5 | 0.00 | 0.00 | 0.00 | 66 | 1000.5 |
| 20260506200745 | 29 | 45 | 1.6 | 24.1 | 0.00 | 0.00 | 0.00 | 65 | 1000.4 |
| 20260506200236 | 29 | 0 | 3.2 | 24.1 | 0.00 | 0.00 | 0.00 | 65 | 1000.1 |
| 20260506195725 | 30 | 113 | 0.0 | 14.5 | 0.00 | 0.00 | 0.00 | 62 | 1000.4 |
| 20260506195215 | 30 | 90 | 0.0 | 22.5 | 0.00 | 0.00 | 0.00 | 62 | 1000.8 |
| 20260506194705 | 30 | 0 | 1.6 | 22.5 | 0.00 | 0.00 | 0.00 | 61 | 1000.9 |
| 20260506194155 | 30 | 23 | 4.8 | 29.0 | 0.00 | 0.00 | 0.00 | 63 | 1000.7 |
| 20260506193645 | 30 | 45 | 3.2 | 29.0 | 0.00 | 0.00 | 0.00 | 64 | 1000.6 |
| 20260506193135 | 29 | 338 | 6.4 | 17.7 | 0.00 | 0.00 | 0.00 | 64 | 1000.7 |
| 20260506192624 | 30 | 68 | 3.2 | 22.5 | 0.00 | 0.00 | 0.00 | 65 | 1000.7 |
| 20260506192114 | 29 | 135 | 1.6 | 22.5 | 0.00 | 0.00 | 0.00 | 65 | 1001.0 |
| 20260506191604 | 30 | 23 | 3.2 | 22.5 | 0.00 | 0.00 | 0.00 | 64 | 1001.0 |
| 20260506191054 | 30 | 338 | 1.6 | 22.5 | 0.00 | 0.00 | 0.00 | 63 | 1001.0 |
| 20260506190544 | 30 | 315 | 8.0 | 22.5 | 0.00 | 0.00 | 0.00 | 62 | 1001.3 |
| 20260506190033 | 30 | 338 | 3.2 | 24.1 | 0.00 | 0.00 | 0.00 | 64 | 1001.0 |
| 20260506185013 | 30 | 68 | 0.0 | 27.4 | 0.00 | 0.00 | 0.00 | 63 | 1000.9 |
| 20260506183953 | 30 | 90 | 6.4 | 29.0 | 0.00 | 0.00 | 0.00 | 64 | 1001.2 |
| 20260506183443 | 30 | 23 | 14.5 | 29.0 | 0.00 | 0.00 | 0.00 | 64 | 1001.3 |
| 20260506182933 | 30 | 23 | 4.8 | 25.7 | 0.00 | 0.00 | 0.00 | 63 | 1001.0 |
| 20260506182423 | 30 | 113 | 6.4 | 24.1 | 0.00 | 0.00 | 0.00 | 62 | 1001.5 |
| 20260506181914 | 30 | 315 | 0.0 | 33.8 | 0.00 | 0.00 | 0.00 | 62 | 1001.5 |
| 20260506181403 | 30 | 23 | 8.0 | 33.8 | 0.00 | 0.00 | 0.00 | 63 | 1001.3 |
| 20260506180343 | 30 | 23 | 6.4 | 24.1 | 0.00 | 0.00 | 0.00 | 64 | 1001.3 |
| 20260506175832 | 29 | 23 | 6.4 | 17.7 | 0.00 | 0.00 | 0.00 | 67 | 1001.3 |
| 20260506174813 | 29 | 23 | 3.2 | 24.1 | 0.00 | 0.00 | 0.00 | 68 | 1001.7 |
| 20260506174304 | 30 | 68 | 11.3 | 24.1 | 0.00 | 0.00 | 0.00 | 67 | 1001.8 |
| 20260506173753 | 28 | 23 | 1.6 | 24.1 | 0.00 | 0.00 | 0.00 | 69 | 1001.7 |
| 20260506173241 | 30 | 338 | 0.0 | 22.5 | 0.00 | 0.00 | 0.00 | 67 | 1001.8 |
| 20260506172731 | 30 | 293 | 3.2 | 27.4 | 0.00 | 0.00 | 0.00 | 67 | 1002.3 |
| 20260506172221 | 29 | 203 | 8.0 | 27.4 | 0.00 | 0.00 | 0.00 | 68 | 1002.3 |
| 20260506171712 | 30 | 315 | 8.0 | 24.1 | 0.00 | 0.00 | 0.00 | 67 | 1002.4 |
| 20260506170652 | 28 | 338 | 9.7 | 24.1 | 0.00 | 0.00 | 0.00 | 70 | 1002.7 |
| 20260506165632 | 29 | 68 | 4.8 | 27.4 | 0.00 | 0.00 | 0.00 | 69 | 1002.7 |
| 20260506164611 | 28 | 23 | 8.0 | 24.1 | 0.00 | 0.00 | 0.00 | 70 | 1003.0 |